Regional Weather Roundup
Issued by NWS

Home | Current Version | Previous Version | Text Only | Print | Product List | Glossary On
Versions: 1 2 3 4 5 6 7 8 9 10 11 12 13 14 15 16 17 18 19 20 21 22 23 24 25 26 27 28 29 30 31 32 33 34 35 36 37 38 39 40 41 42 43 44 45 46 47 48 49 50
000
ASUS43 KDTX 221210
RWRMI
MICHIGAN HOURLY REGIONAL WEATHER ROUNDUP
NATIONAL WEATHER SERVICE DETROIT/PONTIAC MI
ISSUED BY NATIONAL WEATHER SERVICE GRAND RAPIDS MI
800 AM EDT MON MAY 22 2017

NOTE: "FAIR" INDICATES FEW OR NO CLOUDS BELOW 12,000 FEET WITH NO
SIGNIFICANT WEATHER AND/OR OBSTRUCTION TO VISIBILITY.

MIZ047>049-052>055-059>063-066>070-074>076-081>083-221300-
SOUTHEAST LOWER MICHIGAN

CITY           SKY/WX    TMP DP  RH WIND       PRES   REMARKS
ADRIAN         CLOUDY    50  43  77 W8        30.02S
6HR MIN TEMP:  48; 6HR MAX TEMP:  57;

ALMA           CLOUDY    49  44  81 SW10G16   29.95S
ANN ARBOR      CLOUDY    51  42  71 S8        29.99S
BAD AXE        CLOUDY    49  42  75 SW13G18   29.93R
6HR MIN TEMP:  49; 6HR MAX TEMP:  55;

DETROIT CITY   CLOUDY    52  39  61 W10       30.00R
6HR MIN TEMP:  52; 6HR MAX TEMP:  60;

DETROIT        CLOUDY    53  40  61 SW14      30.01R
6HR MIN TEMP:  51; 6HR MAX TEMP:  60;

FLINT          CLOUDY    51  41  68 W12       29.97R
6HR MIN TEMP:  50; 6HR MAX TEMP:  54;

GROSSE ILE     CLOUDY    53  40  63 W8        30.00S
6HR MIN TEMP:  51; 6HR MAX TEMP:  60;

HILLSDALE      CLOUDY    50  41  71 SW14G22   30.01R
HOWELL         CLOUDY    50  40  69 SW10      29.98S
6HR MIN TEMP:  49; 6HR MAX TEMP:  54;


CITY           SKY/WX    TMP DP  RH WIND       PRES   REMARKS
JACKSON        CLOUDY    51  42  71 W14       29.99S
6HR MIN TEMP:  50; 6HR MAX TEMP:  52;

LANSING        CLOUDY    51  40  65 W14G23    29.98S
6HR MIN TEMP:  49; 6HR MAX TEMP:  51; 6HR PCP: TRACE;

MASON          CLOUDY    50  43  74 W7        29.99R
MONROE         PTSUNNY   52  42  69 SW12      30.01S
6HR MIN TEMP:  50; 6HR MAX TEMP:  59;

MT. CLEMENS    CLOUDY    53  40  61 W10       29.97R
6HR MIN TEMP:  52; 6HR MAX TEMP:  59;

PONTIAC        CLOUDY    50  40  68 SW12G20   29.97R
6HR MIN TEMP:  50; 6HR MAX TEMP:  55; 6HR PCP: TRACE;

PORT HOPE        N/A     51  42  71 SW8G16    29.90R
6HR MIN TEMP:  51; 6HR MAX TEMP:  58;

PORT HURON     CLOUDY    52  39  62 SW5       29.97S
TRI CITIES     CLOUDY    51  44  77 SW15      29.94S
6HR MIN TEMP:  50; 6HR MAX TEMP:  53; 6HR PCP: TRACE;

YPSILANTI      CLOUDY    53  42  66 SW13      30.00R
6HR MIN TEMP:  52; 6HR MAX TEMP:  60;

$$
MIZ043>046-050>051-056>058-064>065-071>073-077>080-221300-
SOUTHWEST LOWER MICHIGAN

CITY           SKY/WX    TMP DP  RH WIND       PRES   REMARKS
BATTLE CREEK   CLOUDY    51  43  74 SW10      30.01R
6HR MIN TEMP:  50; 6HR MAX TEMP:  51;

BENTON HARBOR  SUNNY     52  41  66 W17       30.03R
6HR MIN TEMP:  50; 6HR MAX TEMP:  52;

BIG RAPIDS     CLOUDY    47  42  84 SW13      29.92R
6HR MIN TEMP:  46; 6HR MAX TEMP:  48;

COLDWATER      CLOUDY    51  43  75 W13G22    30.02R
6HR MIN TEMP:  49; 6HR MAX TEMP:  51;

HOLLAND        CLOUDY    51  43  74 W20G28    29.99R
6HR MIN TEMP:  50; 6HR MAX TEMP:  51;

GRAND RAPIDS   CLOUDY    50  43  77 SW17      29.97R
6HR MIN TEMP:  50; 6HR MAX TEMP:  50;

KALAMAZOO      PTSUNNY   52  40  63 W13       30.02R
6HR MIN TEMP:  51; 6HR MAX TEMP:  52;

MARSHALL       CLOUDY    50  43  76 SW10G16   29.99S
6HR MIN TEMP:  50; 6HR MAX TEMP:  51;

MOUNT PLEASANT CLOUDY    49  42  79 SW7       29.92S
6HR MIN TEMP:  48; 6HR MAX TEMP:  51;

MUSKEGON       CLOUDY    50  42  74 SW13G21   29.97R
6HR MIN TEMP:  49; 6HR MAX TEMP:  50;

STURGIS        PTSUNNY   51  43  76 W10       30.03R
6HR MIN TEMP:  49; 6HR MAX TEMP:  51;

$$
MIZ016>042-221300-
NORTHERN LOWER MICHIGAN

CITY           SKY/WX    TMP DP  RH WIND       PRES   REMARKS
ALPENA         CLOUDY    50  44  80 SW10      29.85S
6HR MIN TEMP:  50; 6HR MAX TEMP:  56;

BEAVER ISLAND  RAIN      45  44  98 SW14      29.80R
6HR MIN TEMP:  44; 6HR MAX TEMP:  48;

BELLAIRE       CLOUDY    48  44  87 SW7       29.85S
6HR MIN TEMP:  47; 6HR MAX TEMP:  51;

CADILLAC       RAIN      45  43  95 SW14G22   29.87R
CHARLEVOIX     CLOUDY    46  46 100 SW9       29.85S FOG
GAYLORD        CLOUDY    47  42  83 SW10      29.83S HAZE
6HR MIN TEMP:  46; 6HR MAX TEMP:  50; 6HR PCP:  0.02;

HOUGHTON LAKE  CLOUDY    47  43  86 SW14G20   29.88R
6HR MIN TEMP:  46; 6HR MAX TEMP:  51; 6HR PCP:  0.01;

MANISTEE       CLOUDY    48  42  80 SW10G17   29.89R
OSCODA         CLOUDY    51  42  70 SW14G21   29.88S
6HR MIN TEMP:  51; 6HR MAX TEMP:  56;

PELLSTON       LGT RAIN  48  44  86 SW7       29.81S FOG
6HR MIN TEMP:  47; 6HR MAX TEMP:  52; 6HR PCP:  0.01;

TRAVERSE CITY  LGT RAIN  49  45  86 SW7       29.84R
6HR MIN TEMP:  48; 6HR MAX TEMP:  50; 6HR PCP: TRACE;

LUDINGTON      CLOUDY    47  43  87 SW12G17   29.91R
6HR MIN TEMP:  46; 6HR MAX TEMP:  47;

$$
MIZ007>008-015-221300-
EASTERN UPPER MICHIGAN

CITY           SKY/WX    TMP DP  RH WIND       PRES   REMARKS
KINROSS        LGT RAIN  46  45  96 SW8       29.79S
6HR MIN TEMP:  45; 6HR MAX TEMP:  48; 6HR PCP: TRACE;

MACKINAC ISLAN CLOUDY    46  46 100 SW9       29.80S FOG
6HR MIN TEMP:  46; 6HR MAX TEMP:  51; 6HR PCP:  0.01;

NEWBERRY       CLOUDY    44  43  97 S7        29.76S FOG
6HR MIN TEMP:  44; 6HR MAX TEMP:  45; 6HR PCP:  0.02;

S. S. MARIE    LGT RAIN  48  45  89 SW12      29.78R
6HR MIN TEMP:  48; 6HR MAX TEMP:  50; 6HR PCP:  0.02;

$$
MIZ004>006-011>014-085-221300-
CENTRAL UPPER MICHIGAN

CITY           SKY/WX    TMP DP  RH WIND       PRES   REMARKS
MANISTIQUE     RAIN      45  42  89 S6        29.76S VSB 1
6HR MIN TEMP:  43; 6HR MAX TEMP:  46; 6HR PCP:  0.02;

ESCANABA       CLOUDY    48  47  96 SW9       29.78R
6HR MIN TEMP:  48; 6HR MAX TEMP:  49; 6HR PCP:  0.02;

MENOMINEE      LGT RAIN  48  43  82 W6        29.83R
6HR MIN TEMP:  47; 6HR MAX TEMP:  49; 6HR PCP:  0.02;

SAWYER-GWINN   CLOUDY    46  46 100 SW6       29.75R
$$
MIZ001>003-009>011-084-221300-
WESTERN UPPER MICHIGAN

CITY           SKY/WX    TMP DP  RH WIND       PRES   REMARKS
IRON MOUNTAIN  CLOUDY    48  42  80 W8        29.77R
6HR MIN TEMP:  48; 6HR MAX TEMP:  49; 6HR PCP: TRACE;

HOUGHTON       LGT RAIN  46  43  89 W17G23    29.72R FOG
6HR MIN TEMP:  43; 6HR MAX TEMP:  47; 6HR PCP:  0.03;

COPPER HARBOR    N/A     47  45  93 VRB6      29.71R
6HR MIN TEMP:  45; 6HR MAX TEMP:  47;

IRONWOOD       CLOUDY    45  43  93 SW12      29.78R
6HR MIN TEMP:  44; 6HR MAX TEMP:  47; 6HR PCP:  0.01;

$$

ABBREVIATIONS USED IN REMARKS
   TC - TEMPERATURE IN CELSIUS
  WCI - WIND CHILL INDEX
   HX - HEAT INDEX
  VSB - VISIBILITY





USA.gov is the U.S. government's official web portal to all federal, state and local government web resources and services.